Regional Weather Roundup
Issued by NWS Charleston, WV

Home | Current Version | Previous Version | Text Only | Print | Product List | Glossary On
Versions: 1 2 3 4 5 6 7 8 9 10 11 12 13 14 15 16 17 18 19 20 21 22 23 24 25 26 27 28
000
ASUS41 KRLX 281910
RWRRLX
West Virginia Regional Weather Roundup
National Weather Service Charleston WV
300 PM EDT SAT MAY 28 2016

Note: "fair" indicates few or no clouds below 12,000 feet with no
significant weather and/or obstructions to visibility.

WVZ003-282000-
Northern Panhandle of West Virginia

CITY           SKY/WX    TMP DP  RH WIND       PRES   REMARKS
WHEELING         N/A     85  63  47 VRB3      30.11F
$$

WVZ009-282000-
Northwest West Virginia

CITY           SKY/WX    TMP DP  RH WIND       PRES   REMARKS
PARKERSBURG      N/A     85  66  53 CALM      30.13F
$$

WVZ006-282000-
Western West Virginia

CITY           SKY/WX    TMP DP  RH WIND       PRES   REMARKS
HUNTINGTON     PTSUNNY   83  66  56 CALM      30.11F
$$

WVZ015-282000-
West Central West Virginia

CITY           SKY/WX    TMP DP  RH WIND       PRES   REMARKS
CHARLESTON     PTSUNNY   85  60  42 CALM      30.12F
$$

WVZ022-031-282000-
North Central West Virginia

CITY           SKY/WX    TMP DP  RH WIND       PRES   REMARKS
CLARKSBURG       N/A     87  64  46 W6        30.12F
MORGANTOWN       N/A     87  61  41 S8        30.13F
$$

WVZ025-035-042-045-282000-
Southern West Virginia

CITY           SKY/WX    TMP DP  RH WIND       PRES   REMARKS
BECKLEY          N/A     80  53  39 VRB5      30.21F
LOGAN          PTSUNNY   84  55  37 CALM      30.15F
BLUEFIELD        N/A     78  54  43 VRB5      30.23F
LEWISBURG      CLOUDY    78  58  50 N3        30.21F
$$

WVZ047-282000-
Northern Mountains of West Virginia

CITY           SKY/WX    TMP DP  RH WIND       PRES   REMARKS
ELKINS           N/A     84  60  44 VRB3      30.16F
$$

WVZ052-282000-
Eastern Panhandle of West Virginia

CITY           SKY/WX    TMP DP  RH WIND       PRES   REMARKS
MARTINSBURG      N/A     87  66  49 SE8       30.11F
PETERSBURG       N/A     89  68  48 SE9       30.13F
$$




USA.gov is the U.S. government's official web portal to all federal, state and local government web resources and services.